Regional Weather Roundup
Issued by NWS

Home | Current Version | Previous Version | Text Only | Print | Product List | Glossary On
Versions: 1 2 3 4 5 6 7 8 9 10 11 12 13 14 15 16 17 18 19 20 21 22 23 24 25 26 27 28 29 30 31 32 33 34 35 36 37 38 39 40 41 42 43 44 45 46 47 48 49 50
000
ASHW40 PHFO 260243
RWRHI

WEATHER ROUNDUP FOR HAWAII
NATIONAL WEATHER SERVICE HONOLULU HI
400 PM HST FRI MAY 25 2018

THIS IS AN AUTOMATED REPORT THAT HAS NOT BEEN QUALITY CONTROLLED.

NOTE..."FAIR" INDICATES FEW OR NO CLOUDS BELOW 12,000 FEET WITH NO
SIGNIFICANT WEATHER AND/OR OBSTRUCTIONS TO VISIBILITY.

* - THESE SITES REPORT LIMITED FIELDS
# - BUOY DATA PROVIDED BY PACIFIC ISLANDS OCEAN OBSERVING SYSTEM.

HIZ001>004-260300-
KAUAI-NIIHAU-

CITY           SKY/WX    TMP DP  RH WIND       PRES   REMARKS
LIHUE APT      CLOUDY    76  70  82 NE20      30.11F
PORT ALLEN*      N/A     81 N/A N/A E25G35      N/A
POIPU*           N/A     79 N/A N/A NE10G23     N/A
PRINCEVILLE*     N/A     75 N/A N/A E14G24      N/A
KOKOLE POINT*  NOT AVBL
MOLOAA DAIRY*    N/A     75  68  78 E5G15       N/A
WAIMEA HTS*      N/A     79  64  61 E9G15       N/A
PUU OPAE*        N/A     72  59  64 SE3         N/A
PUU LUA*       NOT AVBL
MAKAHA RIDGE*    N/A     73  63  68 E1          N/A
$$

HIZ005>011-260300-
OAHU-

CITY           SKY/WX    TMP DP  RH WIND       PRES   REMARKS
HONOLULU       CLOUDY    81  63  54 NE18      30.05F
KALAELOA       CLOUDY    82  64  54 E8G26     30.06F
KANEOHE MCB    CLOUDY    77  70  79 NE13      30.06F
WHEELER FIELD  CLOUDY    76  64  67 E10       30.07F
BELLOWS*         N/A    N/A N/A N/A NE20        N/A
KAHUKU*          N/A    N/A N/A N/A NE13G24     N/A
WHEELER*         N/A    N/A N/A N/A NE5G15      N/A
WAIANAE HARBOR   N/A    N/A N/A N/A E10G20      N/A
DILLINGHAM*    NOT AVBL
KAHUKU TRN*      N/A     77  70  78 W13G26      N/A
KAWAILOA*        N/A     72  63  73 E10G23      N/A
KII*             N/A     75  68  78 E20         N/A
MAKUA RANGE*     N/A     84  63  48 E9G28       N/A
OAHU FOREST NW   N/A     68  61  77 E18G37      N/A
SCHOFIELD BRK*   N/A     73  63  68 E9          N/A
SCHOFIELD S*   NOT AVBL
WAIANAE VLY*     N/A     77  63  61 N3G18       N/A
KUAOKALA*        N/A     73  64  73 E17G30      N/A
HONOULIUULI*   NOT AVBL
MOKUOLOE IS*   NOT AVBL
PALEHUA*         N/A     68  59  73 NE16G30     N/A
WAIAWA PHB*    NOT AVBL
$$

HIZ012>013-260300-
MOLOKAI-

CITY           SKY/WX    TMP DP  RH WIND       PRES   REMARKS
MOLOKAI AIRPT  MOSUNNY   80  65  59 NE18G29   30.07F
KALAUPAPA      NOT AVBL
MAKAPULAPAI*     N/A     79  68  69 E20         N/A
MOLOKAI 1*       N/A     70  59  68 S3G15       N/A
PUU ALII*        N/A     63  58  83 N3G14       N/A
$$

HIZ016-260300-
KAHOOLAWE-

CITY           SKY/WX    TMP DP  RH WIND       PRES   REMARKS
KAHOOLAWE*     NOT AVBL
HAKIOAWA*        N/A     74  65  73 MISG      30.46S
HONOKANAIA*    NOT AVBL
KANELOA*         N/A     75  64  69 E21G33    30.12F
KEALIALALO*    NOT AVBL
LUA MAKIKA*    NOT AVBL
$$

HIZ014>015-260300-
LANAI-

CITY           SKY/WX    TMP DP  RH WIND       PRES   REMARKS
LANAI CITY     NOT AVBL
LANAI 1*         N/A     73  66  78 NE18G26     N/A
$$

HIZ017>028-260300-
MAUI-

CITY           SKY/WX    TMP DP  RH WIND       PRES   REMARKS
KAHULUI        MOSUNNY   79  64  61 NE23G33   30.04F
KAPALUA-W MAUI MOSUNNY   79  64  61 NE14G25   30.06F
HANA AIRPORT   NOT AVBL
HANA*            N/A     81 N/A N/A E9G15       N/A
HALEAKALA SUMM   N/A     57   1  10 E15         N/A
MAALAEA BAY*     N/A     82 N/A N/A N21G32      N/A
HALEAKALA*     NOT AVBL
KAUPO GAP*     NOT AVBL
KULA 1*          N/A     57  56  96 NW3         N/A
$$

HIZ023>026-260300-
BIG ISLAND OF HAWAII COAST AND LOWER SLOPES-

CITY           SKY/WX    TMP DP  RH WIND       PRES   REMARKS
KAILUA KONA    PTSUNNY   82  66  58 SW8       30.00F
HILO           PTSUNNY   78  69  73 E16       30.07F
HONOKAA*         N/A     70 N/A N/A VRB1        N/A
KAWAIHAE MWT*    N/A     84 N/A N/A W12G17      N/A
KAWAIHAE*        N/A     81 N/A N/A W12       29.99S
SOUTH POINT*     N/A     73 N/A N/A N17G25      N/A
UPOLU AIRPORT* NOT AVBL
KAMUELA*       PTCLDY    68  64  88 NE16      30.13S
HAKALAU*         N/A     61  57  88 SE5         N/A
KALOKO-HONOKO*   N/A     82  68  61 SW6       30.00S
PALI 2*          N/A     73  59  60 NE16        N/A
KEALAKOMO*       N/A     82  68  61 NE21        N/A
KAUPULEHU*       N/A     81  63  54 VRB3G17     N/A
KAPAPALA*        N/A     74  67  77 E8G25       N/A
LOWER KAHUKU*    N/A     64  63  94 NE3G10      N/A
PUHE CS*         N/A     84  70  61 SW3G9       N/A
PUHO CS*         N/A     80  69  68 W2          N/A
PTA KEAMUKU*     N/A     70  59  68 NE18        N/A
WAIKOLOA*        N/A     79  63  57 NE18G29     N/A
$$

HIZ027>028-260300-
BIG ISLAND OF HAWAII INTERIOR AND SUMMMITS-

CITY           SKY/WX    TMP DP  RH WIND       PRES   REMARKS
BRADSHAW FIELD NOT AVBL
MK VISITOR CEN   N/A     61   0   8 SE13        N/A
MAUNA KEA*       N/A     48   1  14 NE9         N/A
MAUNA LOA*       N/A     61  12  15 MISG        N/A
MAUNA LOA 1*   NOT AVBL
PTA KIPUKA*      N/A     64  55  72 SE8         N/A
PTA RANGE 17*    N/A    N/A N/A N/A E12G17      N/A
PTA WEST*        N/A     66  57  72 NW9         N/A
NENE CABIN*      N/A     52  50  93 E7G16       N/A
AHUMOA*          N/A     58  56  95 NW3         N/A
PTA PORTABLE*  NOT AVBL
PUU MALI*        N/A     59  55  88 SW8G20      N/A
$$

HIC003-260300-
NORTHWEST ISLANDS-

CITY           SKY/WX    TMP DP  RH WIND       PRES   REMARKS
MIDWAY ISLAND  MOSUNNY   75  66  73 SE6       30.22F
MIDWAY NOS*      N/A     75 N/A N/A MISG      30.21S
FRENCH FRIGATE NOT AVBL
$$

PHZ110>124-180-260300-
BUOY REPORTS

STATION/POSITION TIME  TEMP    WIND        PRES    WAVE   SWELL
                       AIR SEA DIR/SP/G            HT/PER HT/DIR
                 (UTC) (F)     (DEG/KT/KT) (MB)    (FT/S) (FT/D)
BUOY 51101       0150   71 74  110/ 17/ 23 1023.4F   7/ 8   5
BUOY 51100       NOT AVBL
BUOY 51002       0210   79 80   70/ 19/ 25 1015.4
BUOY 51003       0150   78 79   80/ 17/ 21 1016.3F   7/ 8   5/ 60
BUOY 51004       0210   78 79   80/ 16/ 19   N/A
WAIMEA BAY#      NOT AVBL
MOKAPU POINT#    0204      77                N/A     7/ 8   2/ 20
LANAI#           NOT AVBL
BARBERS PT 2#    NOT AVBL
PAUWELA#         0200      76                N/A     7/ 8   2/ 10
HILO#            0157      78                N/A     8/ 8   2/ 10
KANEOHE BAY#     0154      77                N/A     7/ 8
KANEOHE BAY 2#   NOT AVBL
HANALEI#         NOT AVBL
KAHULUI HARBOR   0212   78 79   40/ 14/ 21 1017.3
HONOLULU HARBOR  0218   78 78   60/  7/ 16 1017.2
PEARL HARBOR#    0200      78                N/A     3/17   2/170
KILO NALU        NOT AVBL
HILO HARBOR      0218   80 79   90/  8/ 15 1017.8
MOKUOLOE         0136   76 79   60/ 15/ 17 1018.9F
NAWILIWILI       0218   75      50/ 17/ 21 1019.1
WHOTS BUOY       NOT AVBL
BUOY 51028       NOT AVBL
$$

......................KEY........................................
  SKY/WX - SKY CONDITIONS/PRESENT WEATHER
  TMP    - TEMPERATURE IN FAHRENHEIT
  DWPT   - DEWPOINT IN FAHRENHEIT
  RH     - RELATIVE HUMIDITY IN PERCENT
  WIND   - DIRECTION AND SPEED /MPH FOR ISLANDS...KTS FOR BUOYS/
  PRES   - MEAN SEA LEVEL PRESSURE IN INCHES OF HG
  VSB    - VISIBILITY IN MILES
  HX     - HEAT INDEX
  WCI    - WIND CHILL INDEX
  VRB    - VARIABLE WIND DIRECTION
  N/A    - NOT AVAILABLE




USA.gov is the U.S. government's official web portal to all federal, state and local government web resources and services.